When you browse on this site, cookies collect data to enhance your experience and personalize the content and advertising you see.
Visit our Privacy Policy to learn more. By continuing to use the site, you agree to this use of cookies and data.
  • In Germany
  • List of Countries
  • For 7 days
  • Water Temperature
  • Satellite Maps
  • Weather Map
  • Weather Widgets
  • user-avatar
    Login

    Hourly Weather Yulara

    Today, 17 December, Monday

    Time Temperature Precipitation Wind Pressure Humidity
    00:00 +35°C° 0 mm 7 mps 711 mmHg 13%
    01:00 +34°C° 0 mm 7 mps 711 mmHg 14%
    02:00 +33°C° 0 mm 7 mps 711 mmHg 15%
    03:00 +33°C° 0 mm 7 mps 711 mmHg 15%
    04:00 +32°C° 0 mm 7 mps 711 mmHg 16%
    05:00 +32°C° 0 mm 6 mps 711 mmHg 16%
    06:00 +30°C° 0 mm 6 mps 712 mmHg 17%
    07:00 +34°C° 0 mm 6 mps 712 mmHg 15%
    08:00 +36°C° 0 mm 7 mps 712 mmHg 13%
    09:00 +41°C° 0 mm 7 mps 713 mmHg 10%
    10:00 +43°C° 0 mm 7 mps 713 mmHg 9%
    11:00 +45°C° 0 mm 8 mps 712 mmHg 9%
    12:00 +46°C° 0 mm 8 mps 712 mmHg 8%
    13:00 +47°C° 0 mm 7 mps 711 mmHg 9%
    14:00 +47°C° 0 mm 7 mps 711 mmHg 9%
    15:00 +47°C° 0 mm 7 mps 710 mmHg 9%
    16:00 +47°C° 0 mm 6 mps 710 mmHg 10%
    17:00 +46°C° 0 mm 6 mps 710 mmHg 11%
    18:00 +45°C° 0 mm 5 mps 710 mmHg 12%
    19:00 +43°C° 0 mm 5 mps 710 mmHg 14%
    20:00 +42°C° 0 mm 4 mps 710 mmHg 15%
    21:00 +41°C° 0 mm 4 mps 711 mmHg 17%
    22:00 +40°C° 0 mm 4 mps 711 mmHg 17%
    23:00 +40°C° 0 mm 4 mps 711 mmHg 18%

    Tomorrow, 18 December, Tuesday

    Time Temperature Precipitation Wind Pressure Humidity
    00:00 +38°C° 0 mm 4 mps 711 mmHg 18%
    01:00 +38°C° 0.2 mm 4 mps 711 mmHg 18%
    02:00 +37°C° 0.2 mm 4 mps 711 mmHg 18%
    03:00 +37°C° 0.2 mm 4 mps 711 mmHg 18%
    04:00 +36°C° 0 mm 4 mps 711 mmHg 17%
    05:00 +35°C° 0 mm 5 mps 711 mmHg 16%
    06:00 +34°C° 0 mm 6 mps 712 mmHg 15%
    07:00 +36°C° 0 mm 5 mps 712 mmHg 14%
    08:00 +37°C° 0 mm 5 mps 713 mmHg 13%
    09:00 +40°C° 0 mm 5 mps 713 mmHg 11%
    10:00 +41°C° 0 mm 4 mps 713 mmHg 11%
    11:00 +42°C° 0 mm 4 mps 713 mmHg 11%
    12:00 +44°C° 0 mm 3 mps 712 mmHg 11%
    13:00 +45°C° 0 mm 5 mps 712 mmHg 10%
    14:00 +46°C° 0 mm 6 mps 712 mmHg 10%
    15:00 +47°C° 0 mm 7 mps 711 mmHg 10%
    16:00 +46°C° 0 mm 7 mps 711 mmHg 10%
    17:00 +46°C° 0 mm 7 mps 711 mmHg 10%
    18:00 +45°C° 0 mm 7 mps 711 mmHg 10%
    19:00 +44°C° 0 mm 6 mps 712 mmHg 11%
    20:00 +41°C° 0 mm 6 mps 712 mmHg 13%
    21:00 +40°C° 0 mm 6 mps 713 mmHg 14%
    22:00 +39°C° 0 mm 6 mps 713 mmHg 16%
    23:00 +38°C° 0 mm 7 mps 713 mmHg 17%

    Day after tomorrow, 19 December, Wednesday

    Time Temperature Precipitation Wind Pressure Humidity
    00:00 +35°C° 0 mm 8 mps 713 mmHg 18%
    01:00 +34°C° 0 mm 8 mps 713 mmHg 20%
    02:00 +33°C° 0 mm 8 mps 713 mmHg 22%
    03:00 +32°C° 0 mm 9 mps 713 mmHg 24%
    04:00 +31°C° 0 mm 9 mps 714 mmHg 29%
    05:00 +29°C° 0 mm 9 mps 714 mmHg 34%
    06:00 +28°C° 0 mm 8 mps 714 mmHg 40%
    07:00 +29°C° 0 mm 8 mps 715 mmHg 36%
    08:00 +32°C° 0 mm 8 mps 715 mmHg 33%
    09:00 +33°C° 0 mm 7 mps 716 mmHg 29%
    10:00 +35°C° 0 mm 6 mps 716 mmHg 25%
    11:00 +37°C° 0 mm 5 mps 715 mmHg 22%
    12:00 +40°C° 0 mm 4 mps 715 mmHg 18%
    13:00 +41°C° 0 mm 4 mps 715 mmHg 16%
    14:00 +41°C° 0 mm 4 mps 714 mmHg 15%
    15:00 +42°C° 0 mm 4 mps 714 mmHg 14%
    16:00 +42°C° 0 mm 4 mps 714 mmHg 14%
    17:00 +42°C° 0 mm 4 mps 714 mmHg 14%
    18:00 +42°C° 0 mm 4 mps 714 mmHg 14%
    19:00 +40°C° 0 mm 5 mps 714 mmHg 15%
    20:00 +39°C° 0 mm 6 mps 715 mmHg 17%
    21:00 +36°C° 0 mm 6 mps 715 mmHg 18%
    22:00 +35°C° 0 mm 8 mps 715 mmHg 22%
    23:00 +33°C° 0 mm 9 mps 715 mmHg 26%

    20 December, Thursday

    Time Temperature Precipitation Wind Pressure Humidity
    00:00 +31°C° 0 mm 10 mps 715 mmHg 30%
    01:00 +29°C° 0 mm 10 mps 715 mmHg 36%
    02:00 +27°C° 0 mm 9 mps 715 mmHg 42%
    03:00 +26°C° 0 mm 9 mps 715 mmHg 48%
    04:00 +24°C° 0 mm 8 mps 716 mmHg 50%
    05:00 +23°C° 0 mm 8 mps 716 mmHg 52%
    06:00 +23°C° 0 mm 7 mps 717 mmHg 54%
    07:00 +26°C° 0 mm 7 mps 717 mmHg 48%
    08:00 +27°C° 0 mm 7 mps 718 mmHg 43%
    09:00 +29°C° 0 mm 6 mps 718 mmHg 37%
    10:00 +32°C° 0 mm 6 mps 718 mmHg 32%
    11:00 +33°C° 0 mm 5 mps 717 mmHg 28%
    12:00 +35°C° 0 mm 4 mps 717 mmHg 23%
    13:00 +36°C° 0 mm 4 mps 716 mmHg 21%
    14:00 +37°C° 0 mm 3 mps 716 mmHg 19%
    15:00 +38°C° 0 mm 2 mps 715 mmHg 17%
    16:00 +38°C° 0 mm 3 mps 715 mmHg 17%
    17:00 +38°C° 0 mm 3 mps 715 mmHg 17%
    18:00 +38°C° 0 mm 4 mps 715 mmHg 17%
    19:00 +37°C° 0 mm 5 mps 716 mmHg 19%
    20:00 +35°C° 0 mm 7 mps 716 mmHg 21%
    21:00 +33°C° 0 mm 9 mps 716 mmHg 24%
    22:00 +32°C° 0 mm 9 mps 716 mmHg 26%
    23:00 +31°C° 0 mm 9 mps 716 mmHg 28%

    21 December, Friday

    Time Temperature Precipitation Wind Pressure Humidity
    00:00 +29°C° 0 mm 8 mps 716 mmHg 30%
    01:00 +28°C° 0 mm 8 mps 716 mmHg 34%
    02:00 +27°C° 0 mm 9 mps 716 mmHg 38%
    03:00 +26°C° 0 mm 9 mps 716 mmHg 42%
    04:00 +26°C° 0 mm 8 mps 716 mmHg 46%
    05:00 +24°C° 0 mm 8 mps 716 mmHg 50%
    06:00 +23°C° 0 mm 8 mps 717 mmHg 54%
    07:00 +24°C° 0 mm 8 mps 717 mmHg 49%
    08:00 +27°C° 0 mm 8 mps 718 mmHg 44%
    09:00 +28°C° 0 mm 8 mps 718 mmHg 40%
    10:00 +30°C° 0 mm 7 mps 718 mmHg 36%
    11:00 +33°C° 0 mm 6 mps 718 mmHg 31%
    12:00 +34°C° 0 mm 5 mps 717 mmHg 27%
    13:00 +35°C° 0 mm 5 mps 717 mmHg 25%
    14:00 +36°C° 0 mm 4 mps 717 mmHg 23%
    15:00 +37°C° 0 mm 3 mps 716 mmHg 21%
    16:00 +37°C° 0 mm 4 mps 716 mmHg 21%
    17:00 +37°C° 0 mm 5 mps 716 mmHg 20%
    18:00 +37°C° 0 mm 5 mps 716 mmHg 19%
    19:00 +35°C° 0 mm 6 mps 717 mmHg 19%
    20:00 +34°C° 0 mm 7 mps 717 mmHg 20%
    21:00 +33°C° 0 mm 8 mps 717 mmHg 20%
    22:00 +32°C° 0 mm 8 mps 717 mmHg 20%
    23:00 +31°C° 0 mm 8 mps 717 mmHg 21%

    22 December, Saturday

    Time Temperature Precipitation Wind Pressure Humidity
    00:00 +29°C° 0 mm 9 mps 717 mmHg 21%
    01:00 +28°C° 0 mm 8 mps 717 mmHg 22%
    02:00 +27°C° 0 mm 8 mps 717 mmHg 23%
    03:00 +26°C° 0 mm 8 mps 717 mmHg 24%
    04:00 +26°C° 0 mm 8 mps 717 mmHg 26%
    05:00 +24°C° 0 mm 8 mps 718 mmHg 27%
    06:00 +23°C° 0 mm 8 mps 718 mmHg 29%
    07:00 +24°C° 0 mm 8 mps 719 mmHg 27%
    08:00 +27°C° 0 mm 8 mps 719 mmHg 26%
    09:00 +28°C° 0 mm 8 mps 720 mmHg 24%
    10:00 +31°C° 0 mm 8 mps 719 mmHg 22%
    11:00 +32°C° 0 mm 7 mps 719 mmHg 20%
    12:00 +34°C° 0 mm 7 mps 718 mmHg 18%
    13:00 +35°C° 0 mm 6 mps 718 mmHg 16%
    14:00 +36°C° 0 mm 6 mps 717 mmHg 15%
    15:00 +36°C° 0 mm 5 mps 717 mmHg 14%
    16:00 +36°C° 0 mm 5 mps 717 mmHg 14%
    17:00 +36°C° 0 mm 6 mps 717 mmHg 13%
    18:00 +36°C° 0 mm 6 mps 717 mmHg 12%
    19:00 +34°C° 0 mm 6 mps 717 mmHg 13%
    20:00 +33°C° 0 mm 6 mps 718 mmHg 14%
    21:00 +32°C° 0 mm 6 mps 718 mmHg 15%
    22:00 +30°C° 0 mm 6 mps 718 mmHg 15%
    23:00 +29°C° 0 mm 6 mps 718 mmHg 16%
    Show more